FW5313 Weather Reports


Display with metric or nautical units.
time (UTC)temp
F
wind
direction
speed
MPH
gust
MPH
rain 1hr
in
rain 24hr
in
rain mn
in
humidity
%
barometer
mb
20260905204559 65 315 1.0 2.0 0.00 0.00 0.00 83 1011.7
20260905204044 65 349 0.0 1.0 0.00 0.00 0.00 83 1011.7
20260905203547 65 0 0.0 1.0 0.00 0.00 0.00 82 1011.9
20260905203058 65 349 0.0 1.0 0.00 0.00 0.00 83 1011.8
20260905202550 65 349 0.0 1.0 0.00 0.00 0.00 82 1011.8
20260905202045 65 0 0.0 4.0 0.00 0.00 0.00 83 1011.9
20260905201556 65 0 0.0 4.0 0.00 0.00 0.00 82 1011.8
20260905201048 65 39 1.0 4.0 0.00 0.00 0.00 80 1011.9
20260905200544 65 18 0.0 3.0 0.00 0.00 0.00 81 1011.7
20260905200122 65 0 1.0 3.0 0.00 0.00 0.00 81 1011.6
20260905195545 66 136 0.0 4.0 0.00 0.00 0.00 81 1011.6
20260905195044 66 300 1.0 4.0 0.00 0.00 0.00 79 1011.6
20260905194555 67 167 1.0 4.0 0.00 0.00 0.00 78 1011.6
20260905194051 66 166 1.0 4.0 0.00 0.00 0.00 74 1011.6
20260905193545 66 164 0.0 3.0 0.00 0.00 0.00 82 1011.6
20260905193101 66 164 0.0 3.0 0.00 0.00 0.00 79 1011.6
20260905192545 66 281 0.0 2.0 0.00 0.00 0.00 80 1011.6
20260905192045 66 247 0.0 3.0 0.00 0.00 0.00 79 1011.6
20260905191556 66 258 0.0 4.0 0.00 0.00 0.00 81 1011.7
20260905191044 66 163 0.0 4.0 0.00 0.00 0.00 79 1011.6
20260905190545 65 164 1.0 3.0 0.00 0.00 0.00 83 1011.6
20260905190057 65 79 1.0 3.0 0.00 0.00 0.00 81 1011.7
20260905185544 65 263 0.0 1.0 0.00 0.00 0.00 81 1011.7
20260905185047 64 304 0.0 2.0 0.00 0.00 0.00 85 1011.8
20260905184609 64 304 0.0 3.0 0.00 0.00 0.00 85 1011.7
20260905184048 63 302 1.0 3.0 0.00 0.00 0.00 84 1011.8
20260905183547 63 32 0.0 4.0 0.00 0.00 0.00 84 1011.8
20260905183059 63 108 1.0 4.0 0.00 0.00 0.00 84 1011.7
20260905182544 63 322 1.0 4.0 0.00 0.00 0.00 85 1011.8
20260905182045 64 280 1.0 4.0 0.00 0.00 0.00 84 1011.7
20260905181558 64 269 0.0 4.0 0.00 0.00 0.00 85 1011.8
20260905181042 64 266 1.0 4.0 0.00 0.00 0.00 84 1011.7
20260905180542 64 0 1.0 3.0 0.00 0.00 0.00 84 1011.7
20260905175542 64 249 0.0 5.0 0.00 0.00 0.00 88 1011.8
20260905175045 63 92 1.0 4.0 0.00 0.00 0.00 87 1011.7
20260905174603 63 306 0.0 3.0 0.00 0.00 0.00 86 1011.9
20260905174043 64 303 1.0 3.0 0.00 0.00 0.00 85 1012.0
20260905173545 65 307 1.0 4.0 0.00 0.00 0.00 81 1012.0
20260905173103 65 182 1.0 4.0 0.00 0.00 0.00 79 1011.9
20260905172544 65 303 1.0 5.0 0.00 0.00 0.00 78 1011.9
20260905172042 65 246 0.0 5.0 0.00 0.00 0.00 78 1011.7
20260905171556 65 247 0.0 3.0 0.00 0.00 0.00 78 1011.9
20260905171044 65 300 0.0 3.0 0.00 0.00 0.00 74 1011.9
20260905170542 65 195 1.0 3.0 0.00 0.00 0.00 76 1011.9
20260905170100 65 271 0.0 4.0 0.00 0.00 0.00 78 1011.8
20260905165545 65 274 0.0 4.0 0.00 0.00 0.00 78 1011.9
20260905165044 65 312 1.0 6.0 0.00 0.00 0.00 76 1011.9
20260905164607 65 264 1.0 6.0 0.00 0.00 0.00 79 1011.8
20260905164043 65 243 1.0 4.0 0.00 0.00 0.00 77 1012.0
20260905163543 65 327 0.0 6.0 0.00 0.00 0.00 80 1011.7
20260905163056 65 180 2.0 6.0 0.00 0.00 0.00 74 1011.8
20260905162545 65 181 1.0 6.0 0.00 0.00 0.00 75 1011.8
20260905162041 65 179 1.0 5.0 0.00 0.00 0.00 80 1012.0
20260905161557 65 176 0.0 5.0 0.00 0.00 0.00 76 1011.9
20260905161044 65 168 0.0 4.0 0.00 0.00 0.00 83 1011.9
20260905160544 65 170 1.0 4.0 0.00 0.00 0.00 80 1011.9
20260905160059 64 60 1.0 5.0 0.00 0.00 0.00 79 1011.9
20260905155542 64 294 1.0 5.0 0.00 0.00 0.00 78 1012.0
20260905155043 65 283 1.0 4.0 0.00 0.00 0.00 81 1012.0
20260905154605 65 289 1.0 3.0 0.00 0.00 0.00 80 1011.9
20260905154042 66 242 1.0 4.0 0.00 0.00 0.00 78 1011.9
20260905153546 66 255 1.0 4.0 0.00 0.00 0.00 75 1011.8
20260905153103 65 285 1.0 3.0 0.00 0.00 0.00 81 1011.8
20260905152543 64 297 1.0 4.0 0.00 0.00 0.00 81 1011.9
20260905152042 64 271 1.0 4.0 0.00 0.00 0.00 79 1011.8
20260905151628 65 303 1.0 4.0 0.00 0.00 0.00 80 1011.7
20260905151044 64 253 0.0 5.0 0.00 0.00 0.00 82 1011.7
20260905150546 64 229 1.0 5.0 0.00 0.00 0.00 80 1011.8
20260905150058 64 0 0.0 3.0 0.00 0.00 0.00 81 1011.7
20260905145550 64 0 0.0 3.0 0.00 0.00 0.00 81 1011.7
20260905145046 64 317 1.0 3.0 0.00 0.00 0.00 80 1011.6
20260905144555 64 252 0.0 1.0 0.00 0.00 0.00 83 1011.7
20260905144046 64 0 0.0 2.0 0.00 0.00 0.00 83 1011.7
20260905143546 65 0 0.0 7.0 0.00 0.00 0.00 82 1011.7
20260905143056 65 94 1.0 7.0 0.00 0.00 0.00 85 1011.7
20260905142548 65 262 1.0 3.0 0.00 0.00 0.00 83 1011.6
20260905142049 65 251 1.0 3.0 0.00 0.00 0.00 83 1011.6
20260905141558 64 245 0.0 3.0 0.00 0.00 0.00 84 1011.6
20260905141045 63 224 0.0 3.0 0.00 0.00 0.00 84 1011.5
20260905140544 63 225 0.0 1.0 0.00 0.00 0.00 85 1011.5
20260905140058 62 0 0.0 2.0 0.00 0.00 0.00 85 1011.6
20260905135547 62 0 0.0 2.0 0.00 0.00 0.00 85 1011.6
20260905135046 62 265 0.0 2.0 0.00 0.00 0.00 87 1011.5
20260905134555 62 270 0.0 2.0 0.00 0.00 0.00 87 1011.5
20260905134049 63 266 0.0 2.0 0.00 0.00 0.00 85 1011.5
20260905133544 63 291 1.0 2.0 0.00 0.00 0.00 86 1011.5
20260905133056 63 148 0.0 4.0 0.00 0.00 0.00 87 1011.5
20260905132545 63 340 0.0 4.0 0.00 0.00 0.00 87 1011.5
20260905132045 62 255 1.0 4.0 0.00 0.00 0.00 87 1011.4
20260905131608 62 0 0.0 4.0 0.00 0.00 0.00 89 1011.3
20260905131045 61 312 1.0 4.0 0.00 0.00 0.00 86 1011.4
20260905130546 62 266 0.0 2.0 0.00 0.00 0.00 89 1011.4
20260905130053 61 0 0.0 3.0 0.00 0.00 0.00 90 1011.4
20260905125546 61 266 0.0 3.0 0.00 0.00 0.00 88 1011.3
20260905125046 61 30 0.0 2.0 0.00 0.00 0.00 89 1011.3
20260905124559 61 0 0.0 2.0 0.00 0.00 0.00 88 1011.3
20260905124045 61 250 0.0 4.0 0.00 0.00 0.00 89 1011.3
20260905123547 60 261 0.0 4.0 0.00 0.00 0.00 89 1011.3
20260905123109 60 169 1.0 3.0 0.00 0.00 0.00 89 1011.3
20260905122550 60 162 0.0 1.0 0.00 0.00 0.00 92 1011.3
20260905122046 60 0 0.0 2.0 0.00 0.00 0.00 91 1011.4
20260905121553 60 222 0.0 2.0 0.00 0.00 0.00 92 1011.1
20260905121046 60 0 0.0 1.0 0.00 0.00 0.00 92 1011.2
20260905120546 59 271 0.0 2.0 0.00 0.00 0.00 92 1011.1
20260905120058 59 0 0.0 2.0 0.00 0.00 0.00 93 1011.2
20260905115546 59 337 0.0 1.0 0.00 0.00 0.00 93 1011.1
20260905115046 59 294 0.0 3.0 0.00 0.00 0.00 94 1011.1
20260905114556 59 0 0.0 3.0 0.00 0.00 0.00 93 1011.1
20260905114041 59 317 0.0 3.0 0.00 0.00 0.00 93 1011.0
20260905113542 59 0 0.0 2.0 0.00 0.00 0.00 93 1011.0
20260905113055 59 250 0.0 2.0 0.00 0.00 0.00 94 1010.9
20260905112541 59 249 0.0 2.0 0.00 0.00 0.00 94 1010.9
20260905112045 58 28 0.0 2.0 0.00 0.00 0.00 94 1010.9
20260905111559 58 28 0.0 2.0 0.00 0.00 0.00 94 1010.9
20260905111042 58 158 0.0 2.0 0.00 0.00 0.00 94 1010.9
20260905110545 58 0 0.0 2.0 0.00 0.00 0.00 95 1010.7
20260905110056 58 98 0.0 2.0 0.00 0.00 0.00 94 1010.8
20260905105542 58 0 0.0 1.0 0.00 0.00 0.00 95 1010.8
20260905105044 58 138 0.0 1.0 0.00 0.00 0.00 95 1010.6
20260905104555 58 0 0.0 1.0 0.00 0.00 0.00 95 1010.6
20260905104044 58 37 0.0 1.0 0.00 0.00 0.00 95 1010.6
20260905103541 57 37 0.0 1.0 0.00 0.00 0.00 95 1010.5
20260905103104 57 39 0.0 4.0 0.00 0.00 0.00 96 1010.5
20260905102545 57 0 0.0 4.0 0.00 0.00 0.00 95 1010.4
20260905102045 57 146 0.0 2.0 0.00 0.00 0.00 95 1010.4
20260905101555 57 0 0.0 1.0 0.00 0.00 0.00 95 1010.4
20260905101043 57 146 0.0 1.0 0.00 0.00 0.00 95 1010.4
20260905100544 57 0 0.0 1.0 0.00 0.00 0.00 95 1010.4
20260905095541 57 146 0.0 1.0 0.00 0.00 0.00 94 1010.2
20260905095048 57 0 0.0 2.0 0.00 0.00 0.00 94 1010.2
20260905094555 57 0 0.0 2.0 0.00 0.00 0.00 94 1010.2
20260905094041 57 146 0.0 1.0 0.00 0.00 0.00 94 1010.2
20260905093544 57 146 0.0 1.0 0.00 0.00 0.00 94 1010.4
20260905093053 57 146 0.0 1.0 0.00 0.00 0.00 94 1010.4
20260905092541 57 146 0.0 1.0 0.00 0.00 0.00 95 1010.4
20260905092042 57 146 0.0 1.0 0.00 0.00 0.00 94 1010.3
20260905091600 57 0 0.0 1.0 0.00 0.00 0.00 94 1010.3
20260905091041 57 146 0.0 1.0 0.00 0.00 0.00 94 1010.3
20260905090541 57 0 0.0 0.0 0.00 0.00 0.00 94 1010.2
20260905090055 57 0 0.0 0.0 0.00 0.00 0.00 94 1010.2
20260905085545 58 0 0.0 0.0 0.00 0.01 0.00 94 1010.2
20260905085046 57 146 0.0 0.0 0.00 0.01 0.00 95 1010.1
20260905084612 57 0 0.0 0.0 0.00 0.01 0.00 95 1010.1
20260905084046 57 0 0.0 0.0 0.00 0.01 0.00 95 1010.1
20260905083549 57 0 0.0 0.0 0.00 0.01 0.00 94 1010.1
20260905083059 57 0 0.0 0.0 0.00 0.01 0.00 94 1010.1
20260905082546 57 0 0.0 1.0 0.00 0.01 0.00 94 1010.2
20260905082046 57 0 0.0 1.0 0.00 0.01 0.00 94 1010.0
20260905081557 57 146 0.0 2.0 0.00 0.01 0.00 94 1009.9
20260905081044 58 146 0.0 2.0 0.00 0.01 0.00 93 1010.1
20260905080545 58 146 1.0 2.0 0.00 0.01 0.00 93 1009.9
20260905080134 58 146 1.0 2.0 0.00 0.01 0.00 93 1010.0
20260905075544 58 146 1.0 2.0 0.00 0.01 0.00 93 1009.9
20260905075044 58 146 1.0 2.0 0.00 0.01 0.00 93 1010.0
20260905074556 58 146 1.0 4.0 0.00 0.01 0.00 92 1010.0
20260905074047 58 146 0.0 4.0 0.00 0.01 0.00 92 1010.0
20260905073546 58 153 1.0 3.0 0.00 0.01 0.00 92 1009.9
20260905073059 58 154 1.0 3.0 0.00 0.01 0.00 93 1010.1
20260905072549 58 328 1.0 2.0 0.00 0.01 0.00 93 1010.1
20260905072044 58 338 1.0 2.0 0.00 0.01 0.00 93 1010.1
20260905071606 58 335 1.0 2.0 0.00 0.01 0.00 92 1010.2
20260905071045 58 338 1.0 2.0 0.00 0.01 0.00 92 1010.1
20260905070545 58 27 1.0 2.0 0.00 0.01 0.00 92 1010.3
20260905070058 58 44 0.0 2.0 0.00 0.01 0.00 92 1010.2
20260905065545 58 44 0.0 2.0 0.00 0.01 0.00 92 1010.4
20260905065046 58 342 1.0 2.0 0.00 0.01 0.00 92 1010.6
20260905064605 58 257 0.0 1.0 0.00 0.01 0.00 92 1010.5
20260905064045 58 0 0.0 1.0 0.00 0.01 0.00 92 1010.4
20260905063546 58 233 0.0 2.0 0.00 0.01 0.00 92 1010.5
20260905063057 58 226 0.0 3.0 0.00 0.01 0.00 92 1010.5
20260905062544 58 0 0.0 3.0 0.00 0.01 0.00 92 1010.5
20260905062045 58 0 1.0 3.0 0.00 0.01 0.00 93 1010.4
20260905061608 58 289 0.0 2.0 0.00 0.01 0.00 93 1010.4
20260905061045 58 0 0.0 2.0 0.00 0.01 0.00 93 1010.3
20260905060545 58 0 0.0 3.0 0.00 0.01 0.00 93 1010.4
20260905060109 58 0 0.0 3.0 0.00 0.01 0.00 93 1010.4
20260905055550 58 65 0.0 1.0 0.00 0.01 0.00 93 1010.4
20260905055044 58 0 0.0 1.0 0.00 0.01 0.00 92 1010.4
20260905054620 59 0 0.0 1.0 0.00 0.01 0.00 92 1010.5
20260905054047 59 0 0.0 2.0 0.00 0.01 0.00 92 1010.4
20260905053551 59 0 0.0 3.0 0.00 0.01 0.00 92 1010.3
20260905053111 59 0 0.0 3.0 0.00 0.01 0.00 92 1010.4
20260905052547 59 322 0.0 2.0 0.00 0.01 0.00 92 1010.5
20260905052047 59 349 0.0 2.0 0.00 0.01 0.00 92 1010.4
20260905051602 59 352 0.0 5.0 0.00 0.01 0.00 91 1010.4
20260905051044 59 360 0.0 5.0 0.00 0.01 0.00 91 1010.6
20260905050545 59 0 0.0 2.0 0.00 0.01 0.00 91 1010.6
20260905050059 59 63 0.0 2.0 0.00 0.01 0.00 92 1010.6
20260905045546 59 0 0.0 2.0 0.00 0.01 0.00 92 1010.7
20260905045044 59 72 0.0 1.0 0.00 0.01 0.00 92 1010.7
20260905044606 59 0 0.0 1.0 0.00 0.01 0.00 92 1010.8
20260905044045 59 0 0.0 1.0 0.00 0.01 0.00 92 1010.8
20260905043545 59 0 0.0 2.0 0.00 0.01 0.00 92 1010.9
20260905043111 59 0 0.0 3.0 0.00 0.01 0.00 92 1010.9
20260905042544 59 0 0.0 3.0 0.00 0.01 0.00 92 1010.8
20260905042045 59 131 0.0 1.0 0.00 0.01 0.00 92 1010.9
20260905041554 59 0 0.0 1.0 0.00 0.01 0.00 92 1010.8
20260905041048 59 136 0.0 2.0 0.00 0.01 0.00 92 1010.9
20260905040546 59 88 0.0 2.0 0.00 0.01 0.00 93 1010.8
20260905040059 59 95 0.0 1.0 0.00 0.01 0.00 93 1010.9
20260905035547 59 101 0.0 1.0 0.00 0.01 0.01 93 1010.9
20260905035046 59 0 0.0 1.0 0.00 0.01 0.01 93 1010.8
20260905034602 58 0 0.0 1.0 0.00 0.01 0.01 93 1010.8
20260905034046 58 106 0.0 1.0 0.00 0.01 0.01 93 1010.8
20260905033544 58 106 0.0 1.0 0.00 0.01 0.01 92 1010.7
20260905033057 59 0 0.0 1.0 0.00 0.01 0.01 92 1010.8
20260905032548 59 0 0.0 0.0 0.00 0.01 0.01 92 1010.8
20260905032044 59 0 0.0 1.0 0.00 0.01 0.01 91 1010.8
20260905031557 59 0 0.0 1.0 0.00 0.01 0.01 91 1010.8
20260905031050 59 0 0.0 1.0 0.00 0.01 0.01 91 1010.8
20260905030544 59 0 0.0 1.0 0.00 0.01 0.01 91 1010.8
20260905030104 60 0 0.0 1.0 0.00 0.01 0.01 91 1010.8
20260905025545 60 0 0.0 2.0 0.00 0.01 0.01 91 1010.9
20260905025044 60 0 0.0 3.0 0.00 0.01 0.01 91 1011.1
20260905024557 60 55 0.0 3.0 0.00 0.01 0.01 90 1011.2
20260905024046 60 57 0.0 2.0 0.00 0.01 0.01 91 1011.2
20260905023546 60 19 0.0 2.0 0.00 0.01 0.01 90 1011.3
20260905023059 60 18 0.0 2.0 0.00 0.01 0.01 90 1011.1
20260905022544 60 18 0.0 1.0 0.00 0.01 0.01 90 1011.1
20260905022046 60 0 0.0 1.0 0.00 0.01 0.01 90 1011.2
20260905021559 60 0 0.0 2.0 0.00 0.01 0.01 90 1011.4
20260905021048 60 0 0.0 2.0 0.00 0.01 0.01 90 1011.4
20260905020549 60 352 0.0 1.0 0.00 0.01 0.01 89 1011.4
20260905015547 61 0 0.0 1.0 0.00 0.01 0.01 89 1011.5
20260905015044 61 352 0.0 1.0 0.00 0.01 0.01 89 1011.3
20260905014556 61 352 0.0 2.0 0.00 0.01 0.01 88 1011.3
20260905014046 61 352 1.0 2.0 0.00 0.01 0.01 88 1011.3
20260905013545 61 100 0.0 2.0 0.00 0.01 0.01 87 1011.3
20260905013102 61 100 0.0 2.0 0.00 0.01 0.01 87 1011.4
20260905012544 61 100 1.0 2.0 0.00 0.01 0.01 87 1011.4
20260905012045 61 98 0.0 2.0 0.00 0.01 0.01 87 1011.3
20260905011619 61 99 0.0 2.0 0.00 0.01 0.01 87 1011.3
20260905011046 61 99 0.0 1.0 0.00 0.01 0.01 87 1011.4
20260905010546 61 100 0.0 1.0 0.00 0.01 0.01 87 1011.5
20260905010100 61 101 0.0 1.0 0.00 0.01 0.01 88 1011.6
20260905005545 61 101 0.0 2.0 0.00 0.01 0.01 88 1011.6
20260905005045 61 102 0.0 2.0 0.00 0.01 0.01 88 1011.6
20260905004600 61 0 0.0 2.0 0.00 0.01 0.01 88 1011.5
20260905004044 60 103 0.0 2.0 0.00 0.01 0.01 90 1011.6
20260905003544 60 103 0.0 2.0 0.00 0.01 0.01 90 1011.6
20260905003056 60 0 0.0 1.0 0.00 0.01 0.01 90 1011.4
20260905002545 60 0 0.0 1.0 0.00 0.01 0.01 90 1011.3
20260905002044 60 0 0.0 0.0 0.00 0.01 0.01 90 1011.3
20260905001607 61 0 0.0 0.0 0.00 0.01 0.01 90 1011.1
20260905001044 61 0 0.0 0.0 0.00 0.01 0.01 90 1011.2
20260905000545 61 0 0.0 0.0 0.00 0.01 0.01 89 1011.1
20260905000103 61 0 0.0 0.0 0.00 0.01 0.01 88 1010.9
20260904235545 61 0 0.0 0.0 0.00 0.01 0.01 88 1010.9
20260904235044 62 0 0.0 0.0 0.00 0.01 0.01 87 1010.8
20260904234557 62 0 0.0 3.0 0.00 0.01 0.01 87 1010.7
20260904234044 62 0 0.0 3.0 0.00 0.01 0.01 86 1010.6
20260904233546 62 88 0.0 4.0 0.00 0.01 0.01 86 1010.7
20260904233106 62 0 0.0 4.0 0.00 0.01 0.01 87 1010.7
20260904232544 62 283 0.0 4.0 0.00 0.01 0.01 87 1010.8
20260904232045 63 105 1.0 4.0 0.00 0.01 0.01 85 1010.9
20260904231603 63 127 1.0 3.0 0.00 0.01 0.01 84 1011.1
20260904231046 64 316 1.0 3.0 0.00 0.01 0.01 83 1010.9
20260904230545 64 334 1.0 3.0 0.00 0.01 0.01 83 1010.9
20260904230059 64 290 0.0 12.0 0.00 0.01 0.01 82 1011.0
20260904225545 64 290 1.0 12.0 0.00 0.01 0.01 82 1010.9
20260904225044 65 146 0.0 4.0 0.00 0.01 0.01 80 1010.7
20260904224559 65 0 0.0 4.0 0.00 0.01 0.01 81 1010.8
20260904224044 65 269 1.0 4.0 0.00 0.01 0.01 80 1010.8
20260904223545 65 298 0.0 3.0 0.00 0.01 0.01 81 1010.8
20260904223101 65 309 0.0 3.0 0.00 0.01 0.01 79 1010.8
20260904222544 65 0 0.0 2.0 0.00 0.01 0.01 79 1010.7
20260904222044 66 0 0.0 2.0 0.00 0.01 0.01 80 1010.6
20260904221557 66 317 0.0 2.0 0.00 0.01 0.01 77 1010.7
20260904221045 66 316 0.0 4.0 0.00 0.01 0.01 77 1010.6
20260904220545 67 331 1.0 4.0 0.00 0.01 0.01 75 1010.6
20260904220109 67 131 1.0 4.0 0.00 0.01 0.01 75 1010.6
20260904215544 67 262 1.0 4.0 0.00 0.01 0.01 74 1010.6
20260904215044 67 60 1.0 4.0 0.00 0.01 0.01 75 1010.6
20260904214602 68 326 1.0 4.0 0.00 0.01 0.01 75 1010.4
20260904214047 68 34 0.0 2.0 0.00 0.01 0.01 77 1010.6
20260904213544 68 67 1.0 2.0 0.00 0.01 0.01 76 1010.6
20260904213104 68 83 0.0 2.0 0.00 0.01 0.01 75 1010.6
20260904212545 68 83 0.0 4.0 0.00 0.01 0.01 75 1010.7
20260904212044 68 339 1.0 4.0 0.00 0.01 0.01 74 1010.6
20260904211601 68 342 0.0 5.0 0.00 0.01 0.01 74 1010.7
20260904211045 68 316 1.0 5.0 0.00 0.01 0.01 78 1010.7
20260904210548 68 0 1.0 3.0 0.00 0.01 0.01 77 1010.7
20260904210105 68 279 1.0 3.0 0.00 0.01 0.01 76 1010.6
20260904205548 68 301 1.0 2.0 0.00 0.01 0.01 74 1010.7
20260904205044 68 269 0.0 4.0 0.00 0.01 0.01 77 1010.7